Wind_Speed
27 28 28 29 29 30 31 32 33 33 34 35 35 36 36 37 38 39 40 40 40 41 42 43 44 45 46 48 50 51 52 53 54 56 58 59 60 62 63 63 62 63 63 63
28 29 29 30 30 31 33 34 34 34 34 36 36 36 36 37 38 39 40 40 40 40 40 40 41 42 42 45 48 49 50 51 52 54 57 59 59 59 60 61 61 61 62 62
29 29 30 30 31 32 34 35 35 35 35 35 37 36 36 37 38 39 39 40 40 40 39 39 39 39 40 42 45 47 48 50 51 52 55 57 57 56 57 58 59 60 60 61
30 30 31 31 32 33 34 35 36 36 36 36 37 37 36 38 39 40 40 40 40 39 39 38 39 38 38 39 42 45 46 48 49 50 52 53 54 53 53 55 57 57 58 59
31 31 31 32 33 35 35 36 37 37 37 37 37 38 37 40 40 40 41 40 40 39 38 38 38 37 37 38 40 42 43 44 45 46 48 50 51 51 50 52 54 56 57 57
32 32 32 33 34 35 36 37 38 37 37 37 37 39 39 41 41 41 41 41 40 39 38 39 38 37 36 37 38 40 40 41 42 43 44 46 49 50 49 50 53 55 56 56
32 32 33 34 34 35 36 37 39 39 39 38 38 40 39 41 41 42 42 42 42 41 40 39 38 36 36 35 37 40 41 40 39 40 41 43 46 48 48 49 51 53 55 55
33 33 34 34 34 35 36 37 38 40 41 40 39 40 40 41 42 43 43 43 42 41 40 39 38 37 37 35 36 38 39 38 37 38 39 41 43 45 47 47 48 51 53 54
34 34 35 35 35 35 36 37 39 41 42 42 41 41 40 41 42 42 42 42 42 42 40 38 37 37 37 37 37 37 36 36 36 36 36 37 39 41 44 46 47 49 51 54
34 35 36 36 35 36 36 38 40 41 43 44 43 42 42 43 42 42 41 41 41 41 40 38 37 37 36 36 36 35 35 36 35 34 34 35 36 39 41 43 45 47 50 52
35 35 36 36 36 36 37 38 40 41 42 45 46 41 43 43 43 43 42 42 41 41 40 38 37 38 36 35 35 35 35 33 31 31 32 32 34 35 36 38 42 44 48 51
36 36 36 36 36 37 38 39 40 41 42 43 45 43 42 43 44 45 44 42 41 41 40 39 39 39 37 35 34 33 32 31 29 28 29 31 32 33 33 35 40 41 44 47
37 37 37 37 37 38 38 39 40 41 42 43 44 43 43 44 44 45 44 43 42 41 41 39 39 39 37 35 33 32 31 30 27 26 27 29 30 30 30 33 37 38 41 44
38 38 38 38 38 38 38 39 40 41 42 44 44 44 41 42 43 44 43 43 42 42 41 40 39 38 37 34 32 31 29 28 25 25 26 27 28 28 29 31 33 35 38 42
39 39 38 38 38 38 39 39 40 41 42 44 44 44 43 43 44 44 43 43 42 41 41 40 39 37 35 33 30 30 28 26 23 24 25 25 27 27 28 30 31 34 37 40
39 40 39 38 38 39 40 39 40 41 42 43 44 44 43 44 45 45 44 43 43 42 40 39 38 37 35 32 29 29 27 24 22 22 23 25 26 27 28 28 30 33 36 38
40 41 41 40 39 41 41 39 40 41 42 43 44 45 45 45 45 45 44 43 43 42 41 40 38 37 34 31 28 27 25 23 22 21 23 24 25 26 27 29 30 32 34 36
41 42 43 43 43 43 42 42 41 42 43 44 45 45 45 45 45 45 45 44 43 42 41 39 38 36 33 30 28 27 25 24 23 21 22 23 24 24 25 27 29 30 32 34
41 43 44 45 46 46 43 43 42 43 43 44 45 45 46 46 44 43 44 44 43 42 41 39 38 35 31 29 27 26 24 24 24 23 22 23 22 23 25 27 30 31 32 31
43 44 45 47 48 48 46 45 44 45 45 44 45 45 45 46 45 42 42 43 42 42 41 39 37 35 31 28 27 26 24 24 24 23 23 23 23 24 26 26 29 32 32 32
45 45 45 47 48 48 47 46 45 46 47 47 46 46 46 46 45 44 43 43 42 42 40 38 37 35 32 29 28 27 25 23 23 23 22 22 23 24 25 26 29 30 31 32
46 46 46 46 48 48 47 47 46 47 47 47 46 46 46 45 45 44 43 43 43 41 40 38 36 34 32 29 28 27 26 25 24 23 23 23 24 25 26 26 28 29 29 30
46 46 46 47 47 47 47 47 47 47 47 46 46 46 46 45 44 44 43 43 42 41 39 37 36 34 30 28 27 26 26 26 25 24 23 23 23 24 25 26 28 29 30 31
46 46 46 47 46 46 47 47 47 47 47 46 45 45 45 45 44 43 42 42 41 40 38 36 35 33 30 28 27 27 26 25 24 23 24 24 24 24 25 26 27 29 30 30
46 47 47 47 46 46 46 46 46 45 45 45 44 44 45 44 43 43 42 42 40 38 36 35 34 32 29 29 28 27 26 25 23 22 23 24 24 24 26 27 28 28 29 31
46 46 46 46 45 46 45 45 45 44 44 44 44 44 44 44 43 43 42 41 40 38 35 34 33 31 29 28 27 26 25 24 22 22 23 24 24 24 25 27 28 28 28 30
Wind_Direction
312 314 314 314 314 314 313 311 311 311 311 310 310 312 313 310 306 303 301 299 296 295 290 283 278 276 273 270 266 265 263 263 262 260 257 255 252 249 247 246 244 244 243 243
312 314 314 314 315 315 314 313 312 312 312 313 313 314 315 314 311 308 306 304 301 298 294 287 282 279 277 274 269 267 264 264 264 262 258 255 253 250 248 245 243 243 242 241
313 314 314 315 316 316 315 315 315 314 313 314 314 315 317 315 314 312 309 306 304 301 297 292 287 283 280 277 274 271 267 266 265 263 259 255 252 249 247 244 242 240 240 239
312 313 314 314 315 316 315 316 316 316 316 318 318 317 318 317 316 314 312 309 306 303 298 295 291 286 283 280 279 275 271 270 267 264 260 256 252 248 245 243 240 238 237 237
311 313 313 313 314 314 315 316 316 317 317 318 318 319 320 319 318 316 314 312 309 305 301 298 294 289 287 285 283 280 276 272 268 266 263 256 251 246 244 241 238 237 236 236
309 311 312 312 313 314 315 315 315 316 317 319 320 321 322 321 320 318 316 315 313 306 302 300 296 292 289 288 287 285 280 276 272 268 264 257 250 245 243 240 237 236 234 234
308 309 310 311 312 313 314 315 316 317 319 321 321 321 323 322 321 319 318 316 314 310 304 301 299 294 291 289 288 286 282 278 272 268 264 257 250 245 242 241 238 236 233 233
307 308 310 310 311 312 313 315 317 318 319 319 319 321 323 322 322 320 319 317 315 312 306 302 300 296 293 291 289 289 284 280 275 267 262 256 250 246 243 240 238 236 233 230
306 307 309 309 310 311 313 314 316 317 317 318 319 322 321 322 322 320 319 318 315 313 309 304 301 297 295 293 291 289 283 280 275 267 261 256 249 245 242 239 239 236 232 228
305 305 306 308 309 310 311 313 315 317 318 318 319 323 322 322 322 320 319 318 316 314 312 308 304 299 297 297 294 288 285 280 275 267 260 253 247 243 242 242 237 235 230 227
303 304 306 307 308 309 310 312 313 314 316 316 317 323 322 322 322 321 320 318 316 315 313 310 306 304 300 299 297 291 288 283 275 265 254 247 246 246 245 242 237 234 231 228
302 303 304 306 307 307 308 309 311 313 314 315 315 321 321 321 320 319 319 318 317 316 314 311 309 306 301 299 296 291 286 283 276 264 251 245 245 244 246 242 237 234 231 228
301 302 304 305 306 306 307 308 309 311 312 314 314 318 319 318 318 318 318 318 317 316 314 311 309 305 303 301 297 290 285 281 274 265 256 250 247 246 244 240 235 234 229 226
298 299 302 305 306 306 307 308 308 309 312 312 314 314 316 316 316 316 316 316 316 316 314 312 309 307 304 303 298 292 289 281 271 265 259 253 247 244 240 237 235 232 227 224
296 297 300 302 303 304 305 306 307 309 311 311 314 314 316 315 315 316 315 315 315 314 313 312 311 307 305 303 298 294 290 283 271 265 259 251 245 242 240 235 234 230 225 223
294 296 298 299 301 302 302 305 308 309 309 310 311 313 314 314 315 315 315 314 313 313 312 311 311 307 304 302 298 294 289 285 277 268 257 249 245 242 240 236 233 230 226 225
293 295 297 298 300 300 302 307 306 307 308 308 310 313 313 313 314 314 314 313 313 312 311 310 310 307 302 299 296 291 284 282 277 268 258 251 247 243 241 238 231 227 224 225
292 294 296 297 298 299 306 305 306 305 306 307 309 311 312 313 314 313 313 312 312 312 311 311 309 305 302 297 293 287 282 277 276 270 258 251 247 244 241 235 228 222 220 221
290 292 293 295 297 299 304 306 305 305 306 308 309 310 311 312 312 312 311 311 311 311 311 311 308 305 301 295 291 287 281 276 273 267 256 252 251 245 240 236 227 223 221 221
288 290 291 294 296 300 304 304 304 304 305 308 308 309 310 311 311 312 310 309 309 310 309 308 305 302 299 293 288 285 282 276 270 262 256 252 249 242 237 236 232 227 225 224
287 289 291 294 296 299 302 303 303 303 306 306 307 308 310 311 311 310 309 308 309 309 308 306 303 301 297 291 285 282 279 274 268 260 254 254 248 242 239 237 232 228 228 226
286 288 290 293 295 299 302 301 301 302 302 304 305 307 309 310 309 308 307 308 308 308 306 304 302 299 296 291 286 280 276 272 267 260 253 251 248 243 239 235 229 227 226 223
284 287 289 290 294 297 299 300 299 299 300 302 303 305 307 308 308 307 307 307 307 307 306 302 300 298 293 289 285 280 273 269 266 258 251 249 246 239 235 231 226 225 224 220
283 285 287 289 292 295 296 297 297 297 299 300 301 303 305 307 307 307 307 307 306 306 304 301 298 296 292 287 283 280 272 267 264 254 247 244 240 234 231 228 224 221 220 219
282 284 287 288 291 292 294 295 296 297 298 299 300 302 304 306 307 306 305 305 305 305 302 299 297 295 291 287 284 278 272 267 260 249 242 238 236 232 228 224 221 219 218 217
281 284 286 288 290 291 293 295 295 296 296 298 299 301 303 304 305 305 304 304 304 303 300 297 294 293 290 286 283 278 270 263 255 245 238 235 233 231 228 222 219 219 216 215
Height
5721 5719 5714 5710 5706 5702 5698 5694 5690 5686 5681 5677 5673 5668 5662 5656 5651 5646 5641 5637 5633 5629 5626 5623 5620 5619 5618 5618 5618 5618 5619 5620 5620 5622 5624 5627 5631 5635 5640 5646 5652 5658 5664 5670
5717 5713 5709 5704 5700 5696 5691 5687 5683 5680 5674 5669 5665 5661 5655 5649 5643 5638 5633 5628 5624 5620 5616 5612 5609 5607 5605 5604 5603 5603 5603 5603 5604 5605 5607 5610 5614 5618 5622 5627 5634 5640 5646 5652
5710 5708 5702 5699 5694 5690 5685 5680 5676 5672 5668 5663 5658 5654 5648 5642 5635 5629 5624 5619 5614 5610 5606 5602 5599 5596 5595 5593 5591 5590 5589 5588 5588 5589 5590 5592 5595 5600 5604 5609 5616 5622 5629 5636
5704 5701 5697 5692 5688 5684 5680 5674 5669 5664 5659 5655 5650 5644 5641 5634 5627 5621 5616 5610 5605 5601 5596 5593 5589 5586 5584 5581 5579 5577 5576 5574 5573 5573 5573 5575 5578 5583 5588 5593 5599 5606 5613 5620
5698 5694 5690 5686 5682 5677 5672 5667 5662 5657 5652 5647 5642 5637 5634 5627 5620 5613 5607 5602 5596 5591 5587 5583 5579 5576 5574 5571 5568 5565 5563 5561 5559 5559 5558 5559 5563 5567 5573 5577 5584 5591 5598 5606
5691 5688 5684 5680 5675 5670 5665 5660 5656 5651 5645 5641 5635 5629 5625 5618 5612 5606 5600 5594 5588 5582 5578 5573 5569 5566 5563 5560 5556 5553 5550 5549 5547 5546 5545 5545 5548 5553 5557 5562 5569 5576 5584 5592
5685 5681 5677 5673 5668 5664 5659 5654 5648 5642 5638 5634 5628 5622 5618 5611 5604 5598 5592 5586 5579 5574 5569 5564 5560 5557 5553 5550 5546 5542 5539 5536 5534 5533 5532 5533 5536 5539 5544 5549 5555 5562 5570 5578
5677 5674 5670 5666 5661 5657 5652 5647 5642 5635 5629 5626 5622 5616 5612 5604 5597 5590 5583 5577 5571 5566 5560 5556 5551 5547 5543 5540 5536 5532 5528 5525 5523 5522 5522 5522 5524 5527 5532 5537 5543 5550 5557 5566
5669 5667 5663 5658 5654 5650 5644 5640 5635 5629 5622 5617 5614 5609 5605 5597 5590 5583 5576 5570 5564 5559 5553 5548 5543 5539 5534 5531 5527 5523 5518 5515 5513 5511 5511 5512 5514 5517 5521 5527 5532 5538 5545 5554
5662 5659 5656 5651 5647 5642 5638 5632 5627 5621 5614 5608 5605 5602 5596 5589 5582 5576 5569 5563 5557 5552 5546 5540 5536 5531 5527 5522 5518 5514 5509 5506 5504 5502 5502 5503 5505 5509 5512 5516 5521 5527 5535 5543
5654 5652 5649 5644 5640 5635 5631 5626 5619 5613 5608 5601 5594 5597 5590 5581 5574 5568 5562 5556 5550 5544 5539 5533 5529 5524 5519 5514 5509 5505 5501 5498 5495 5494 5494 5495 5498 5501 5504 5507 5512 5518 5526 5533
5646 5643 5640 5637 5633 5627 5623 5618 5613 5608 5602 5594 5587 5589 5583 5575 5567 5560 5555 5549 5543 5537 5531 5526 5521 5515 5511 5506 5502 5498 5494 5491 5488 5486 5487 5489 5491 5494 5496 5500 5504 5510 5516 5523
5638 5635 5632 5629 5627 5621 5616 5611 5605 5599 5594 5588 5581 5581 5575 5568 5560 5554 5547 5542 5536 5530 5524 5519 5513 5508 5503 5499 5494 5491 5487 5484 5482 5481 5481 5483 5485 5487 5489 5493 5498 5503 5508 5515
5629 5626 5624 5622 5617 5611 5607 5603 5597 5591 5586 5580 5575 5570 5569 5561 5554 5548 5541 5534 5529 5523 5517 5512 5506 5501 5496 5491 5487 5483 5481 5478 5476 5475 5476 5477 5479 5481 5484 5488 5492 5496 5502 5509
5619 5618 5615 5613 5608 5604 5600 5596 5590 5584 5579 5572 5568 5562 5558 5552 5546 5540 5533 5528 5522 5516 5510 5505 5499 5494 5489 5485 5480 5477 5474 5472 5471 5470 5471 5472 5474 5476 5479 5483 5487 5491 5496 5502
5610 5608 5606 5604 5601 5595 5592 5589 5583 5577 5571 5564 5559 5555 5550 5543 5538 5531 5526 5520 5514 5509 5503 5498 5492 5487 5482 5478 5474 5471 5468 5466 5465 5465 5466 5467 5469 5471 5474 5478 5482 5486 5491 5497
5601 5598 5595 5594 5591 5586 5584 5583 5576 5570 5564 5557 5551 5547 5541 5535 5530 5523 5517 5512 5506 5501 5495 5490 5485 5480 5476 5472 5468 5465 5463 5461 5460 5460 5460 5462 5464 5466 5469 5472 5477 5481 5487 5492
5593 5589 5584 5582 5580 5576 5579 5572 5567 5561 5556 5550 5543 5538 5532 5526 5521 5515 5509 5503 5497 5492 5487 5482 5477 5473 5469 5465 5462 5459 5458 5456 5455 5455 5455 5456 5458 5461 5464 5468 5472 5476 5482 5487
5583 5579 5575 5571 5567 5565 5568 5563 5556 5550 5547 5542 5534 5529 5523 5517 5513 5509 5501 5494 5489 5484 5479 5474 5469 5465 5462 5458 5455 5453 5452 5451 5450 5450 5450 5451 5453 5455 5459 5463 5467 5472 5477 5483
5573 5570 5566 5561 5556 5554 5557 5552 5545 5540 5537 5533 5525 5520 5514 5508 5503 5501 5494 5487 5481 5476 5470 5465 5462 5458 5454 5451 5449 5447 5446 5445 5444 5444 5445 5446 5448 5451 5454 5458 5462 5467 5472 5478
5562 5559 5556 5551 5545 5544 5545 5540 5534 5530 5527 5521 5515 5510 5505 5499 5494 5489 5484 5478 5472 5467 5462 5457 5453 5450 5447 5444 5441 5440 5439 5438 5438 5438 5439 5440 5443 5446 5449 5453 5457 5462 5467 5472
5551 5548 5545 5541 5536 5537 5534 5528 5524 5520 5515 5510 5505 5500 5495 5490 5484 5479 5474 5469 5463 5458 5453 5449 5445 5442 5439 5436 5434 5433 5432 5431 5431 5432 5434 5435 5437 5440 5444 5448 5452 5457 5462 5468
5540 5539 5534 5531 5530 5527 5522 5517 5513 5509 5504 5500 5495 5490 5485 5480 5475 5470 5465 5460 5454 5449 5445 5440 5437 5434 5431 5429 5427 5425 5425 5424 5424 5425 5427 5429 5431 5435 5438 5443 5447 5452 5457 5463
5529 5527 5522 5520 5520 5516 5511 5506 5502 5497 5493 5489 5485 5480 5475 5470 5465 5460 5456 5451 5445 5441 5436 5432 5428 5426 5424 5421 5419 5418 5417 5417 5417 5419 5421 5423 5426 5430 5434 5438 5442 5447 5452 5457
5518 5514 5511 5508 5508 5504 5500 5495 5491 5487 5482 5478 5475 5470 5465 5460 5456 5451 5446 5441 5436 5432 5427 5423 5420 5418 5415 5413 5412 5410 5410 5410 5410 5412 5414 5417 5420 5424 5428 5432 5437 5441 5447 5452
5508 5504 5499 5497 5496 5490 5489 5485 5481 5476 5473 5469 5465 5461 5456 5450 5446 5441 5436 5431 5427 5422 5419 5415 5412 5410 5407 5405 5404 5403 5402 5403 5404 5406 5408 5411 5415 5419 5423 5427 5432 5436 5441 5446